LKPO Weather Reports


time (UTC)temp
F
wind
direction
speed
knots
gust
knots
rain 1hr
in
rain 24hr
in
rain mn
in
humidity
%
barometer
mb
20260506222355 61 130 7.8 0.0 0.00 0.00 0.00 67
20260506212138 64 120 6.1 0.0 0.00 0.00 0.00 59
20260506202155 64 130 7.8 0.0 0.00 0.00 0.00 55
20260506192340 66 140 7.8 0.0 0.00 0.00 0.00 55
20260506182228 68 140 10.4 0.0 0.00 0.00 0.00 52
20260506172153 73 150 15.6 0.0 0.00 0.00 0.00 40
20260506162354 75 150 15.6 0.0 0.00 0.00 0.00 38
20260506152211 75 130 17.4 0.0 0.00 0.00 0.00 44
20260506142139 75 150 12.2 0.0 0.00 0.00 0.00 41
20260506132139 73 150 13.9 0.0 0.00 0.00 0.00 43
20260506122138 75 180 12.2 0.0 0.00 0.00 0.00 41
20260506112125 73 160 12.2 0.0 0.00 0.00 0.00 43
20260506102326 72 170 12.2 0.0 0.00 0.00 0.00 46
20260506092107 70 170 12.2 0.0 0.00 0.00 0.00 49
20260506082123 68 170 12.2 0.0 0.00 0.00 0.00 56
20260506072126 64 190 10.4 0.0 0.00 0.00 0.00 63
20260506062157 61 140 4.3 0.0 0.00 0.00 0.00 67
20260506042338 52 160 1.7 0.0 0.00 0.00 0.00 81
20260506032126 52 200 1.7 0.0 0.00 0.00 0.00 76
20260506022125 54 120 4.3 0.0 0.00 0.00 0.00 76
20260506012226 54 0 0.0 0.0 0.00 0.00 0.00 76
20260506002123 54 150 4.3 0.0 0.00 0.00 0.00 76
20260505232122 57 90 4.3 0.0 0.00 0.00 0.00 67